Location: Unspecified
(50.7693°N, 0.0000°E)
Time: 10:18:53
(UTC+00:00)

deb Explorer IX - Pass Details

Date: 21 June 2019
Orbit: 539 x 1112 km, 38.8° (Epoch: 16 July)

Event Time Altitude Azimuth Distance (km) Brightness Sun altitude
Rises 15:27:09 0° 240° (WSW) 3,900 ? 42.1°
Reaches altitude 10° 15:30:14 10° 230° (SW) 2,966 ? 41.6°
Maximum altitude 15:36:27 30° 173° (S) 1,849 ? 40.7°
Drops below altitude 10° 15:42:31 10° 115° (ESE) 2,885 ? 39.8°
Sets 15:45:28 0° 105° (ESE) 3,778 ? 39.3°
